Location: Newark
(54.4333°N, 18.5500°E)
Time: 05:22:24
(UTC+00:00)

Envisat - Pass Details

Date: 14 December 2019
Orbit: 764 x 766 km, 98.1° (Epoch: 21 January)

Event Time Altitude Azimuth Distance (km) Brightness Sun altitude
Rises 18:31:09 0° 230° (SW) 3,228 6.7 -34.7°
Reaches altitude 10° 18:36:02 10° 272° (W) 2,311 6.2 -35.4°
Maximum altitude 18:36:45 10° 280° (W) 2,293 6.2 -35.5°
Drops below altitude 10° 18:37:28 10° 288° (WNW) 2,313 6.2 -35.6°
Sets 18:42:23 0° 330° (NNW) 3,248 6.7 -36.3°
